Other Public Products
Issued by NWS Grand Forks, ND

Home | Current Version | Previous Version | Text Only | Print | Product List | Glossary Off
Versions: 1 2 3 4 5 6 7 8 9 10 11 12 13 14 15 16 17 18 19 20 21 22 23 24 25 26 27 28 29 30 31 32 33 34 35 36 37 38 39 40 41 42 43 44 45 46 47 48 49 50

000
FPUS83 KFGF 191810
OPUFGF
PRAIRIE TO PINES WEATHER ROUNDUP
NATIONAL WEATHER SERVICE EASTERN NORTH DAKOTA/GRAND FORKS ND
1200 PM CST MON FEB 19 2018

 **SATELLITE DATA USED TO AUGMENT SKY COVER AT AUTOMATED STATIONS**
 *****  WEATHER ACROSS EASTERN NORTH DAKOTA  *****

CITY           SKY/WX    TMP DP  RH WIND       PRES   REMARKS
GRAND FORKS    CLOUDY     5  -4  66 N16       30.27S WCI -14
6HR MIN TEMP:  -1; 6HR MAX TEMP:   5;

GRND FORKS AFB FAIR       2  -8  62 NE15      30.27R WCI -16
GRND FORKS NWS   N/A      6  -1  73 N14       30.24S WCI -11
BUXTON           N/A      5   1  85 N14         N/A  WCI -13
DEVILS LAKE    FAIR       1  -8  66 NE8       30.24F WCI -13
6HR MIN TEMP:  -9; 6HR MAX TEMP:   1;

FARGO          FAIR       9   1  70 N20G29    30.17F WCI -10
6HR MIN TEMP:   4; 6HR MAX TEMP:   9;

WAHPETON ARPT  FAIR      14   1  57 N22G28    30.09F WCI  -4
$$

 *****  WEATHER ACROSS CENTRAL AND WESTERN NORTH DAKOTA  *****

CITY           SKY/WX    TMP DP  RH WIND       PRES   REMARKS
JAMESTOWN      FAIR       6  -4  63 NE17      30.16F WCI -13
6HR MIN TEMP:   2; 6HR MAX TEMP:   6;

BISMARCK       CLOUDY     6  -4  63 NE12      30.20R WCI  -9
6HR MIN TEMP:   1; 6HR MAX TEMP:   6;

MINOT          FAIR       7  -7  52 CALM      30.20F
6HR MIN TEMP: -11; 6HR MAX TEMP:   7;

MINOT AFB      CLOUDY     1 -11  56 CALM      30.20F
6HR MIN TEMP: -19; 6HR MAX TEMP:   1;

GARRISON         N/A      3  -5  69 NW3       30.18F
6HR MIN TEMP: -10; 6HR MAX TEMP:   3;

WILLISTON      FAIR      -2  -7  79 CALM      30.21S
6HR MIN TEMP: -18; 6HR MAX TEMP:  -2;

DICKINSON      CLOUDY     4 -11  50 NE8       30.09F WCI  -9
6HR MIN TEMP:  -2; 6HR MAX TEMP:   4;

HETTINGER      LGT SNOW   2  -5  72 NE9       30.10R WCI -13
6HR MIN TEMP:  -1; 6HR MAX TEMP:   2; 6HR PCP: TRACE;

$$

 *****  OTHER OBSERVATIONS NORTHEAST NORTH DAKOTA  *****

CITY           SKY/WX    TMP DP  RH WIND       PRES   REMARKS
WALHALLA       FAIR       1  -9  60 N5        30.32R WCI  -8
LANGDON        NOT AVBL
CAVALIER         N/A      0  -8  71 N8        30.32R WCI -15
GRAFTON        NOT AVBL
CANDO          FAIR       5  -8  56 NE5       30.27S WCI  -4
FORT TOTTEN      N/A      3  -9  57 N2        29.95S
ROLLA          FAIR       0  -8  71 SE3       30.22R
RUGBY          NOT AVBL
 ***** THE ABOVE OBSERVATIONS ARE NON NWS ARE NOT QUALITY
        CONTROLLED AND MAY MIS-REPORT RAIN FOR SNOW...
$$

 *****  OTHER OBSERVATIONS SOUTHEAST NORTH DAKOTA *****

CITY           SKY/WX    TMP DP  RH WIND       PRES   REMARKS
COOPERSTOWN    FAIR       5  -6  61 NE16      30.20F WCI -14
VALLEY CITY    NOT AVBL
OAKES            N/A     10   0  61 NE25G35   30.11F WCI -10
GWINNER          N/A     12   3  67 N25G32    30.11F WCI  -8
BUFFALO          N/A      5  -5  63 SE17        N/A  WCI -14
WYNDMERE       NOT AVBL
 ***** THE ABOVE OBSERVATIONS ARE NON NWS ARE NOT QUALITY
       CONTROLLED AND MAY MIS-REPORT RAIN FOR SNOW...
$$

  *****  WEATHER ACROSS NORTHERN MINNESOTA  *****

CITY           SKY/WX    TMP DP  RH WIND       PRES   REMARKS
FLAG ISLAND    FAIR       0  -9  65 N6        30.25F WCI -12
WARROAD        FAIR       3  -6  66 NE5       30.25F WCI  -6
ROSEAU         FAIR       5  -6  61 N8        30.25S WCI  -8
HALLOCK        FAIR       3  -8  60 N7        30.31R WCI  -9
THF RVR FALLS  FAIR       9  -5  53 N13       30.23R WCI  -7
6HR MIN TEMP:  -1; 6HR MAX TEMP:   9;

HALSTAD        NOT AVBL
FOSSTON        FAIR       9   0  66 N12       30.18R WCI  -6
BAUDETTE       FAIR       3  -5  69 NW7       30.20F WCI  -9
6HR MIN TEMP:  -4; 6HR MAX TEMP:   3;

WASKISH        CLOUDY     9   0  66 NE8       30.17F WCI  -4
CROOKSTON      FAIR       7  -4  61 NE13      30.25S WCI  -9
$$
  *****  WEATHER ACROSS CENTRAL AND WEST MINNESOTA  *****

CITY           SKY/WX    TMP DP  RH WIND       PRES   REMARKS
BEMIDJI        FAIR       8  -2  63 NE17      30.12F WCI -10
6HR MIN TEMP:   4; 6HR MAX TEMP:   9;

PARK RAPIDS    FAIR      10  -1  61 NE15G25   30.05F WCI  -7
6HR MIN TEMP:   5; 6HR MAX TEMP:  10; 6HR PCP: TRACE;

WADENA         FAIR      12   1  62 NE14G23   30.04R WCI  -3
DETROIT LAKES  FAIR      14   1  57 N14       30.08F WCI  -1
MOORHEAD       FAIR       9   1  72 N21       30.16F WCI -11
FERGUS FALLS   FAIR      14   0  52 NE16G22   30.07S WCI  -2
ELBOW LAKE     CLOUDY    12   3  68 NE17      30.04S WCI  -5
6HR MIN TEMP:  10; 6HR MAX TEMP:  12;

MORRIS MN      CLOUDY    16   9  73 N21       30.01S WCI  -2
STAPLES        CLOUDY    10   3  72 NE12G20   30.02F WCI  -4
WHEATON        FLURRIES  12   3  67 N21G26    30.08F WCI  -6
$$
  *****  WEATHER ELSEWHERE ACROSS MINNESOTA  *****

CITY           SKY/WX    TMP DP  RH WIND       PRES   REMARKS
DULUTH         LGT SNOW  11   5  77 NE13      30.03S VSB 1   WCI  -4
6HR MIN TEMP:   8; 6HR MAX TEMP:  11; 6HR PCP:  0.07;

INTRNTL FALLS  FAIR       7  -2  66 NE7       30.20F WCI  -5
6HR MIN TEMP:   2; 6HR MAX TEMP:   7;

ELY            FAIR       7   0  72 NE7       30.12F WCI  -5
CLOQUET        LGT SNOW  10   5  79 N9        30.03F WCI  -2
BRAINERD       LGT SNOW  12   4  70 NE15G24   30.03F WCI  -4
6HR MIN TEMP:   9; 6HR MAX TEMP:  12; 6HR PCP: TRACE;

HIBBING        CLOUDY     8  -1  66 NE10      30.09F WCI  -6
6HR MIN TEMP:   3; 6HR MAX TEMP:   8;

ALEXANDRIA     LGT SNOW  13   7  77 NE16      29.99F WCI  -3
6HR MIN TEMP:  10; 6HR MAX TEMP:  13; 6HR PCP: TRACE;

SAINT CLOUD    CLOUDY    16  10  77 N12G21    29.97S WCI   3
6HR MIN TEMP:  12; 6HR MAX TEMP:  16; 6HR PCP:  0.04;

MINNEAPOLIS    LGT SNOW  22  20  92 N14       29.89F FOG     WCI   9
6HR MIN TEMP:  19; 6HR MAX TEMP:  22; 6HR PCP:  0.05;

$$

  *****  WEATHER ACROSS SOUTH DAKOTA  *****

CITY           SKY/WX    TMP DP  RH WIND       PRES   REMARKS
SIOUX FALLS    LGT SNOW  17  12  80 NE15      29.88S WCI   2
6HR MIN TEMP:  14; 6HR MAX TEMP:  17; 6HR PCP: TRACE;

BROOKINGS      FLURRIES  13   8  81 N22G29    29.90F WCI  -6
WATERTOWN      CLOUDY     9   5  84 N24G30    29.95S FOG     WCI -12
6HR MIN TEMP:   7; 6HR MAX TEMP:  10; 6HR PCP: TRACE;

HURON          CLOUDY    11   6  81 N20G29    30.01F WCI  -7
6HR MIN TEMP:   9; 6HR MAX TEMP:  11; 6HR PCP: TRACE;

SISSETON         N/A     12   5  73 N21       30.06F WCI  -7
ABERDEEN       FLURRIES  12   2  64 N22G32    30.09F WCI  -7
6HR MIN TEMP:   7; 6HR MAX TEMP:  12; 6HR PCP: TRACE;

MITCHELL       CLOUDY    15  10  80 N20       29.98F WCI  -2
PIERRE         LGT SNOW   8   3  80 N20       30.06S WCI -11
6HR MIN TEMP:   5; 6HR MAX TEMP:   8; 6HR PCP: TRACE;

MOBRIDGE       LGT SNOW   8  -1  66 N15       30.09S VSB 3/4 WCI  -9
RAPID CITY     LGT SNOW   2  -4  76 N16       29.99F WCI -18
6HR MIN TEMP:   0; 6HR MAX TEMP:   2; 6HR PCP:  0.06;

$$

  *****  SOME WEATHER IN NEARBY STATES *****

CITY           SKY/WX    TMP DP  RH WIND       PRES   REMARKS
GLASGOW MT     LGT SNOW  -1  -7  75 NW5       30.15R VSB 1   WCI -11
6HR MIN TEMP:  -8; 6HR MAX TEMP:  -1; 6HR PCP: TRACE;

GREAT FALLS MT FAIR      -6 -10  83 SW5       30.01S WCI -17
6HR MIN TEMP:  -8; 6HR MAX TEMP:  -5; 6HR PCP:  0.01;

CHEYENNE WY    CLOUDY     4   2  91 E12       29.58F FOG     WCI -12
6HR MIN TEMP:   2; 6HR MAX TEMP:   5; 6HR PCP:  0.01;

SCOTTSBLUFF NE LGT SNOW   7   0  73 N8        29.83F WCI  -6
6HR MIN TEMP:   6; 6HR MAX TEMP:   8; 6HR PCP:  0.01;

OMAHA NE       CLOUDY    24  22  91 NW15      29.82R FOG     WCI  11
6HR MIN TEMP:  24; 6HR MAX TEMP:  28; 6HR PCP: TRACE;

DES MOINES IA  DRZL/FOG  36  34  92 NW12      29.69R VSB 1
6HR MIN TEMP:  36; 6HR MAX TEMP:  47; 6HR PCP:  0.04;

DAVENPORT IA   PTSUNNY   54  51  90 S21       29.70F
6HR MIN TEMP:  42; 6HR MAX TEMP:  54; 6HR PCP:  0.03;

CHICAGO IL     LGT RAIN  43  41  93 SE6       29.78F VSB 1/2
6HR MIN TEMP:  37; 6HR MAX TEMP:  44; 6HR PCP:  0.08;

EAU CLAIRE WI  LGT SNOW  24  21  88 NE14G23   29.87S VSB 1   WCI  12
6HR MIN TEMP:  24; 6HR MAX TEMP:  29; 6HR PCP:  0.01;

LA CROSSE WI   CLOUDY    36  30  79 N10       29.79F
6HR MIN TEMP:  33; 6HR MAX TEMP:  37; 6HR PCP: TRACE;

$$

  *****  SOME NATIONAL WEATHER *****

CITY           SKY/WX    TMP DP  RH WIND       PRES   REMARKS
LA GUARDIA NY  CLOUDY    48  37  65 S13G22    30.44F



USA.gov is the U.S. government's official web portal to all federal, state and local government web resources and services.